Zurück zum Katalog

COSMOS 1275 DEB

AktivPO
NORAD 13472·DEBRIS·🇷🇺 Russia

Gestartet Jun 4, 1981 von Plesetsk Cosmodrome

Loading…

Nächste Überflüge (nächste 24 Stunden)

TLE

AktuellSource: Space-Track

Epoche: Sep 14, 2026, 06:47 UTC

1 13472U 81053FU  26257.28298830  .00003388  00000-0  11247-2 0  9995
2 13472  82.8413 256.6114 0014215  19.4649 352.3370 14.37510127262189

Verfolge COSMOS 1275 DEB in Echtzeit mit AllMySat

Download on the App Store